Tracking 29892 objects as of 21-Nov-2024
HD Live streaming from Space Station
objects crossing your sky now

RESURS O1 DEB

Track RESURS O1 DEB now!
10-day predictions


NORAD ID: 23344
Int'l Code: 1994-074C
Perigee: 621.4 km
Apogee: 793.9 km
Inclination: 98.0 °
Period: 98.8 minutes
Semi major axis: 7078 km
RCS: 0.0743 m2 (small)
Launch date: November 4, 1994
Source: Commonwealth of Independent States (former USSR) (CIS)
Launch site: TYURATAM MISSILE AND SPACE COMPLEX (TTMTR)

Note: This is SATELLITE DEBRIS
Your satellite tracking list
Your tracking list is empty




NASA's NSSDC Master Catalog

Two Line Element Set (TLE):
1 23344U 94074C   24325.57464898  .00002206  00000-0  44553-3 0  9991
2 23344  97.9876 345.6040 0121860  74.4791  79.6372 14.57736316589599
Source of the keplerian elements: AFSPC